Wetbulb
54.22 54.87 55.34 55.76 56.25 56.61 57.03 57.59 58.13 58.25 58.28 58.22 58.33 58.29 58.25 57.83 56.88 53.95 50.87 54.16 50.60 45.56 47.18 50.10 52.29 48.38 49.08 48.07 45.67 48.98 48.86 49.17 45.92 42.39 41.41 41.22 40.32 42.38 41.35 43.52 42.14 40.98 38.94 38.65 39.53 38.70 38.37 53.53 52.94 47.66 49.95 52.68 56.00 56.29
52.68 53.81 54.85 55.38 55.66 56.03 56.41 56.77 57.51 57.53 58.13 58.41 58.40 58.28 58.04 57.40 57.06 55.56 49.17 54.43 55.23 48.96 47.45 51.78 54.11 55.71 53.49 52.00 48.97 47.94 48.27 47.79 48.45 44.37 43.36 43.09 43.02 43.83 42.13 40.43 44.78 40.99 43.10 40.88 43.71 42.95 49.74 52.90 52.79 54.39 53.99 52.51 53.57 54.46
52.91 53.55 54.33 54.73 54.94 55.16 55.60 56.25 56.83 57.21 57.59 58.09 58.34 58.42 58.12 57.29 57.11 55.50 49.62 51.11 51.88 49.20 49.28 49.06 51.16 55.31 53.33 52.42 52.61 47.97 48.57 50.46 49.03 49.39 45.70 44.09 41.89 43.33 39.00 40.20 41.61 45.65 47.44 43.88 43.78 47.67 51.81 53.94 54.56 55.82 55.57 54.58 56.29 55.80
52.33 53.01 52.97 53.05 53.38 54.06 54.88 55.40 55.74 56.23 56.67 57.43 57.75 58.01 57.91 57.29 56.67 55.80 49.55 51.16 50.73 49.52 45.29 48.72 55.81 51.87 54.10 51.54 51.03 50.19 50.80 49.01 50.49 49.39 46.03 44.36 43.41 46.52 42.83 44.67 44.21 46.95 46.42 44.98 45.06 50.02 51.73 53.82 54.71 55.39 56.06 56.94 57.06 57.36
51.74 52.14 52.33 52.60 52.77 52.99 53.98 54.73 55.02 55.60 56.15 56.57 56.93 57.23 57.43 57.17 55.82 53.98 50.34 51.97 53.51 49.84 44.77 46.43 51.58 53.53 53.90 51.73 51.35 50.56 48.73 46.20 47.15 46.15 44.83 43.96 45.67 46.37 45.68 44.94 43.43 49.40 48.41 46.18 46.20 50.73 49.95 50.82 54.30 56.63 56.42 55.92 56.48 56.23
51.70 52.08 52.16 52.39 52.56 52.81 53.18 53.88 54.49 54.96 55.52 56.17 56.39 56.97 56.83 56.25 55.10 50.24 51.21 53.42 51.57 52.16 47.84 43.29 50.88 50.99 48.64 50.55 49.96 47.38 48.21 46.60 48.88 47.57 46.40 47.45 49.07 47.86 42.85 41.29 48.80 51.73 52.74 52.36 50.63 53.19 52.83 54.11 56.11 57.35 56.60 57.15 57.79 56.73
51.29 51.75 52.17 52.45 52.45 52.39 53.08 53.59 54.29 54.94 55.40 55.56 56.15 56.07 55.95 55.62 51.37 48.25 49.91 52.68 51.61 51.59 48.57 45.39 45.88 52.46 52.91 51.23 50.65 50.75 50.72 49.91 49.35 47.19 46.96 47.38 48.66 48.49 43.96 41.95 47.88 52.27 53.57 53.86 53.62 53.19 51.60 53.99 52.72 56.07 57.02 57.84 58.00 58.49
51.21 51.63 52.02 52.35 52.68 52.51 52.14 53.12 53.92 54.49 54.96 55.24 55.40 55.52 55.24 54.67 52.83 49.14 51.96 52.54 51.07 50.14 49.68 44.06 45.39 47.68 51.19 47.09 47.10 50.11 48.35 48.80 48.86 48.62 48.81 47.74 48.40 47.34 43.17 47.74 50.99 52.88 53.14 52.92 53.31 53.81 53.22 54.28 54.40 54.58 56.00 56.01 54.93 55.18
50.78 50.99 51.42 51.90 52.17 52.66 52.45 52.33 53.43 54.17 54.35 54.72 55.06 55.00 52.76 49.93 49.24 52.77 57.68 55.66 52.73 50.84 45.94 46.50 41.96 43.76 50.04 47.59 47.74 48.92 48.84 45.58 49.83 47.62 47.47 48.70 45.87 44.34 46.92 50.09 50.96 51.79 50.47 50.62 52.01 53.27 53.90 53.22 53.08 53.92 54.19 54.54 53.48 54.14
50.27 50.78 51.11 51.26 51.86 52.17 52.66 52.35 53.12 53.66 53.69 53.90 52.72 50.43 48.71 53.16 57.50 56.15 52.30 49.28 49.10 49.04 47.59 44.04 47.37 44.98 48.26 47.18 46.53 47.82 49.07 46.70 43.92 47.46 49.63 45.75 44.68 50.24 51.71 51.18 51.05 51.41 52.15 53.02 51.03 51.52 51.70 51.03 52.17 52.82 54.05 55.04 54.93 54.77
49.92 50.33 50.50 50.99 51.65 52.15 52.40 52.12 52.77 52.85 53.88 52.33 50.41 49.15 53.40 57.14 51.37 50.01 47.60 44.68 45.68 44.06 46.48 45.84 45.61 43.29 49.75 47.84 49.76 51.58 48.74 48.78 41.82 44.83 45.24 43.11 42.83 49.79 51.62 52.76 53.66 54.24 54.56 54.31 54.31 53.42 53.02 52.54 52.44 52.58 53.41 55.20 56.02 56.12
50.05 50.36 50.48 50.71 51.10 51.53 52.05 52.39 52.48 52.22 53.15 51.55 51.33 51.67 51.28 50.34 48.10 46.68 45.20 45.43 45.21 44.54 48.73 46.52 47.30 47.27 49.99 52.02 49.25 48.94 45.24 45.17 41.36 48.11 45.29 42.03 47.84 50.97 52.80 53.32 53.56 53.70 54.38 55.08 55.14 53.81 54.17 55.07 55.07 53.08 53.74 54.02 54.61 55.67
49.77 50.39 50.93 51.22 51.27 51.90 52.71 52.85 52.49 52.60 52.71 53.15 51.27 49.24 49.19 46.97 40.20 42.33 40.67 42.72 43.67 47.88 49.79 49.24 46.47 50.49 51.57 50.60 47.94 46.29 44.35 42.73 48.02 44.04 43.28 45.58 50.43 51.97 52.27 52.84 52.67 53.53 53.96 53.43 53.18 53.84 54.42 54.29 54.52 53.25 52.10 53.02 53.52 54.30
49.94 50.34 50.63 51.14 52.48 53.05 53.67 53.17 52.53 52.67 52.00 49.46 49.43 37.52 44.03 43.13 44.38 44.03 44.38 47.43 51.41 52.76 51.90 49.64 48.42 49.00 49.87 47.85 47.33 43.65 46.06 46.94 42.60 40.14 41.71 48.51 50.21 51.46 52.14 53.02 52.73 52.08 52.30 52.40 52.37 53.04 53.44 53.41 53.18 53.50 53.28 53.14 52.41 52.97
50.01 50.18 50.92 52.19 53.03 54.41 53.71 53.57 52.70 52.77 51.08 47.76 46.90 38.28 44.38 47.08 47.93 49.41 52.26 51.29 53.35 53.66 53.11 50.42 50.84 51.59 48.42 46.67 49.30 46.47 44.30 42.57 43.40 42.90 46.20 50.24 50.85 51.37 51.18 51.45 51.09 51.26 51.53 51.47 51.92 52.02 52.82 53.23 53.20 53.08 52.69 52.67 52.87 53.61
49.76 50.39 50.80 51.09 52.51 54.06 52.60 51.91 52.85 51.95 51.14 47.43 47.02 44.65 46.90 46.40 46.21 49.28 49.52 50.06 54.98 53.79 54.89 53.02 49.01 48.16 48.30 46.68 45.05 44.74 43.64 42.26 44.41 47.00 49.52 50.74 50.17 50.10 50.18 50.75 51.92 52.17 52.07 52.54 53.30 53.48 53.57 53.45 52.53 52.72 52.03 52.33 52.65 53.58
48.90 49.77 51.05 50.68 50.47 52.65 53.02 52.30 52.08 49.43 47.07 45.74 44.87 46.38 45.56 45.35 46.28 48.47 51.53 51.31 55.41 52.96 49.01 50.90 48.12 47.33 48.29 44.20 43.95 46.81 44.83 46.18 47.86 48.99 50.24 50.36 49.82 49.57 50.80 52.54 53.09 52.84 51.99 51.53 51.10 51.72 52.11 53.35 53.03 51.62 50.13 51.34 51.68 53.32
48.38 49.24 49.67 49.76 49.97 51.98 52.32 51.41 50.00 47.77 45.90 45.22 42.89 45.62 46.77 47.77 46.90 48.59 49.69 53.67 53.02 51.12 50.57 48.90 51.82 47.26 43.14 43.55 44.07 48.98 50.37 51.68 50.27 49.77 50.09 49.71 50.59 51.93 51.77 50.56 51.80 51.88 51.83 51.91 51.92 52.42 52.78 53.83 53.09 52.96 53.22 51.35 51.76 52.37
44.81 46.30 48.74 49.58 49.32 48.30 48.25 48.62 49.56 43.23 44.19 45.03 45.73 46.47 46.34 46.30 47.65 49.78 51.38 51.15 53.23 52.97 51.33 50.07 48.53 46.70 46.38 48.91 49.54 49.41 49.85 48.81 47.74 48.62 49.94 51.07 51.38 51.65 51.28 51.18 51.69 51.06 51.46 52.07 52.90 54.22 54.63 54.41 54.23 54.39 52.77 53.51 53.69 54.20
48.75 49.41 50.96 50.76 49.97 48.21 45.97 46.64 49.62 45.58 43.04 44.80 45.29 44.43 44.75 45.00 47.38 49.86 51.09 51.60 52.18 52.24 50.46 48.30 48.41 48.90 49.96 52.31 53.37 54.05 51.12 49.79 48.67 47.43 47.35 49.21 51.48 50.20 49.69 50.25 50.28 50.97 52.61 53.35 54.94 52.85 55.68 54.61 54.52 53.71 52.80 52.53 52.43 53.61
47.26 51.79 52.17 50.52 46.24 48.66 47.40 47.02 46.96 46.75 45.64 44.85 47.27 47.30 46.96 49.30 48.33 48.84 48.68 50.05 49.12 48.56 47.50 50.39 51.16 50.96 52.30 54.98 54.10 54.51 51.78 50.14 49.03 48.26 48.07 48.69 50.63 50.21 49.61 50.67 50.85 51.26 50.91 52.10 52.66 54.40 52.93 53.86 54.96 54.22 53.77 53.65 55.00 56.45
44.97 50.04 51.19 51.40 48.61 47.79 46.67 46.70 44.78 46.97 46.32 47.29 47.98 49.76 46.64 47.53 47.85 48.80 50.69 48.90 48.56 49.92 50.86 50.24 50.59 53.10 52.60 52.80 54.29 54.67 53.18 53.08 51.13 50.69 49.46 49.74 49.28 48.99 48.23 49.29 50.06 49.70 51.41 52.42 52.72 54.04 55.87 56.07 56.23 56.75 56.95 56.85 55.79 57.15
46.65 48.46 47.68 49.13 46.08 43.11 40.87 47.26 44.25 46.50 44.04 46.80 49.40 47.09 47.17 47.45 49.47 53.32 47.43 49.51 50.72 52.70 54.05 54.06 54.84 54.22 52.66 52.83 54.17 54.96 53.40 52.01 50.33 50.32 52.39 53.10 50.45 49.80 50.68 51.55 51.62 51.23 51.81 53.13 53.28 55.49 56.01 52.89 55.18 56.45 57.72 57.61 57.68 57.46
47.60 44.68 45.77 43.85 43.18 39.66 45.50 44.32 47.21 47.15 47.93 45.26 44.77 45.26 46.04 47.98 51.11 50.11 47.80 49.77 51.41 53.08 52.94 54.22 53.45 52.87 55.00 53.30 52.30 53.34 52.40 52.51 51.85 52.75 52.25 50.69 49.68 50.44 51.28 51.44 53.06 53.37 53.79 54.68 54.85 55.37 55.47 55.51 53.72 56.79 58.72 59.32 57.89 56.31
41.76 40.63 42.39 36.41 44.85 44.40 42.50 43.36 44.70 44.21 43.23 45.60 45.93 45.60 46.80 50.98 47.78 47.63 47.33 48.79 49.89 51.95 52.85 54.98 54.68 54.37 53.30 52.64 52.05 52.41 53.18 53.56 51.07 47.93 47.16 51.78 51.35 50.30 50.33 50.79 52.69 52.88 54.27 54.05 54.23 55.15 54.39 55.61 55.69 57.15 57.05 57.39 56.45 56.05
36.43 42.39 39.82 43.87 44.32 43.65 43.09 43.59 44.93 45.30 46.34 45.99 46.22 46.62 47.59 46.39 45.57 44.74 48.85 49.72 53.50 52.79 55.84 56.74 54.91 53.47 53.37 53.24 51.45 51.85 53.86 54.73 49.49 46.94 48.24 52.64 51.39 50.82 50.00 49.06 49.77 50.56 53.86 54.32 55.45 56.39 54.92 56.36 55.96 55.32 56.64 55.40 51.03 55.32
37.54 40.97 43.96 46.28 44.99 47.02 45.21 46.57 47.86 46.02 43.10 42.82 44.80 45.64 45.99 44.31 45.45 50.00 53.21 54.04 53.34 55.70 57.07 56.03 57.08 55.97 54.52 53.24 54.19 54.05 54.32 53.92 50.38 49.29 51.72 53.02 53.32 53.49 52.31 51.41 51.03 52.35 53.98 55.08 55.40 56.06 55.47 55.88 55.69 55.04 54.20 54.81 55.55 55.13
43.05 44.45 40.13 43.31 45.39 47.89 45.18 45.46 45.19 43.36 44.97 47.80 47.37 46.34 46.11 47.69 47.47 52.20 54.78 55.10 56.62 56.43 55.13 56.41 56.59 56.04 54.67 54.44 55.97 54.02 53.78 53.40 51.79 53.27 52.85 52.75 53.02 54.00 55.08 54.43 50.86 47.70 51.14 50.20 54.45 54.80 55.97 56.13 55.70 55.36 54.84 54.23 54.09 54.77
42.13 43.69 43.50 41.64 42.66 44.42 45.13 45.85 45.58 46.97 48.91 49.27 47.63 47.68 49.45 53.05 55.16 55.74 56.27 55.54 55.91 54.57 53.44 54.95 54.19 57.46 56.48 56.83 53.98 53.10 53.05 54.28 50.62 49.29 49.20 49.16 49.97 52.06 54.44 53.20 52.84 53.29 53.31 52.64 45.06 50.68 54.74 55.38 55.91 55.85 55.40 54.92 54.76 54.47
41.77 44.60 42.36 45.29 44.48 44.16 46.44 49.50 48.63 49.88 50.01 51.74 52.87 52.82 53.30 53.76 55.30 56.98 57.11 56.07 55.30 53.44 54.74 55.34 54.84 55.54 53.91 52.55 51.98 51.23 54.41 54.35 54.18 53.12 50.39 50.35 50.87 52.66 54.14 54.68 53.93 53.38 53.30 53.92 53.06 51.61 47.05 52.74 51.38 55.43 54.91 54.94 54.55 54.28
46.37 48.00 45.90 45.81 44.16 46.52 48.91 50.66 51.04 50.66 50.65 50.45 52.35 51.11 50.94 52.39 55.04 57.30 56.87 56.20 55.62 55.67 54.94 55.54 56.11 56.10 52.35 52.68 50.90 48.64 49.72 50.37 51.19 50.85 50.51 50.20 50.60 52.44 54.17 54.75 54.11 55.06 54.18 53.67 53.45 52.76 52.14 52.19 52.28 52.00 53.05 53.75 53.35 52.93
47.91 46.76 45.35 44.11 45.64 49.94 51.33 49.13 48.64 48.32 49.21 48.94 48.11 49.84 51.72 51.11 48.73 52.62 56.48 56.77 55.56 55.06 53.72 55.19 56.27 56.25 55.82 54.21 53.94 51.40 48.41 51.39 51.80 51.62 50.62 49.42 49.22 49.74 52.20 53.37 55.40 55.13 54.96 54.24 54.12 54.14 53.18 52.31 51.96 51.60 51.69 52.05 52.17 52.47
47.36 47.29 47.07 46.20 45.31 48.37 50.04 49.83 50.48 49.66 49.35 48.08 48.38 49.95 50.35 49.78 49.12 53.60 57.38 59.10 58.06 56.33 55.56 56.65 56.25 57.18 58.49 57.46 54.05 53.50 50.65 53.27 49.92 45.72 45.97 46.53 47.29 46.74 48.72 49.27 51.09 53.59 54.86 53.98 53.26 54.02 53.66 53.39 52.28 52.51 52.87 52.73 52.54 52.62
MSLP
1021.22 1021.05 1020.79 1020.58 1020.36 1020.09 1019.90 1019.77 1019.55 1019.27 1018.95 1018.66 1018.32 1017.92 1017.43 1016.88 1016.31 1015.92 1015.07 1014.12 1014.37 1014.61 1012.91 1011.60 1010.92 1010.59 1010.35 1010.55 1010.83 1010.52 1010.11 1010.12 1011.10 1012.49 1013.43 1013.65 1013.33 1012.43 1012.20 1011.63 1011.27 1011.76 1012.39 1012.88 1013.07 1012.80 1012.50 1011.15 1010.44 1011.18 1012.42 1011.66 1010.95 1010.45
1021.07 1020.88 1020.71 1020.46 1020.22 1019.96 1019.70 1019.51 1019.33 1019.14 1018.90 1018.58 1018.30 1018.01 1017.68 1017.23 1016.69 1016.10 1015.91 1014.50 1014.39 1014.79 1013.19 1011.62 1010.75 1010.26 1010.12 1009.90 1010.51 1010.79 1011.10 1011.13 1011.27 1012.50 1013.40 1013.58 1013.58 1013.05 1012.93 1012.53 1011.55 1012.05 1011.89 1012.48 1013.13 1013.46 1013.16 1012.78 1012.79 1012.86 1012.61 1012.19 1011.83 1011.46
1021.00 1020.81 1020.57 1020.30 1020.07 1019.83 1019.53 1019.32 1019.10 1018.88 1018.71 1018.49 1018.21 1017.92 1017.69 1017.43 1017.11 1016.96 1016.72 1015.84 1014.98 1014.79 1013.18 1011.83 1010.01 1008.82 1009.04 1009.33 1009.61 1010.57 1010.97 1010.60 1011.05 1011.30 1012.70 1013.45 1013.75 1013.48 1013.42 1012.85 1012.33 1011.99 1011.88 1012.63 1013.20 1013.77 1013.62 1013.24 1013.00 1012.70 1012.46 1012.39 1012.04 1011.85
1020.89 1020.67 1020.45 1020.22 1019.96 1019.72 1019.48 1019.20 1018.96 1018.74 1018.53 1018.29 1018.03 1017.82 1017.59 1017.34 1017.12 1017.00 1016.94 1016.13 1016.14 1015.54 1014.57 1011.74 1009.55 1009.03 1008.33 1008.62 1009.21 1009.62 1010.16 1010.33 1010.78 1011.26 1012.60 1013.42 1013.73 1013.12 1013.11 1012.74 1012.85 1012.18 1012.11 1012.86 1013.61 1013.59 1013.28 1013.05 1013.14 1013.05 1012.74 1012.48 1012.16 1011.67
1020.86 1020.53 1020.31 1020.06 1019.84 1019.60 1019.34 1019.08 1018.83 1018.58 1018.33 1018.11 1017.87 1017.64 1017.40 1017.10 1016.78 1016.46 1016.44 1015.87 1015.65 1016.07 1015.08 1013.02 1010.80 1008.95 1008.48 1008.57 1008.98 1009.31 1009.97 1010.64 1011.50 1012.24 1013.07 1013.45 1012.94 1013.16 1012.96 1012.99 1013.05 1012.41 1012.49 1012.95 1013.52 1013.68 1013.61 1013.34 1013.02 1012.66 1012.41 1012.21 1012.09 1011.87
1020.80 1020.43 1020.16 1019.88 1019.71 1019.43 1019.16 1018.95 1018.65 1018.46 1018.19 1017.90 1017.69 1017.45 1017.22 1017.00 1016.69 1016.34 1016.23 1015.64 1015.34 1015.38 1015.25 1013.95 1011.14 1009.51 1008.85 1008.71 1009.08 1009.52 1010.13 1010.81 1011.56 1012.40 1012.87 1012.75 1012.21 1012.58 1013.34 1013.57 1013.07 1012.61 1012.41 1012.46 1012.92 1012.97 1013.12 1012.99 1012.78 1012.44 1012.33 1012.20 1011.88 1011.65
1020.77 1020.40 1020.06 1019.76 1019.50 1019.24 1019.01 1018.78 1018.50 1018.27 1017.93 1017.65 1017.45 1017.20 1016.98 1016.89 1016.98 1016.78 1016.31 1015.50 1015.26 1015.59 1015.35 1014.47 1012.35 1009.73 1009.15 1009.29 1009.74 1010.13 1010.23 1010.92 1011.54 1012.33 1012.67 1012.75 1012.42 1012.44 1013.05 1013.18 1012.80 1012.63 1012.37 1012.42 1012.55 1012.80 1013.08 1013.03 1012.74 1012.33 1012.17 1011.95 1011.66 1011.33
1020.66 1020.31 1019.99 1019.66 1019.36 1019.05 1018.79 1018.58 1018.37 1018.04 1017.69 1017.42 1017.16 1016.86 1016.60 1016.44 1016.46 1016.10 1014.80 1014.58 1015.34 1015.58 1015.38 1014.85 1012.74 1010.67 1009.36 1010.04 1010.63 1010.46 1011.01 1011.46 1011.70 1012.00 1012.25 1012.37 1012.28 1012.48 1012.81 1012.30 1012.25 1012.38 1012.56 1012.70 1012.66 1012.63 1012.75 1012.64 1012.32 1012.10 1011.85 1011.57 1011.28 1010.99
1020.57 1020.26 1019.93 1019.57 1019.24 1018.91 1018.61 1018.37 1018.10 1017.78 1017.46 1017.17 1016.85 1016.54 1016.39 1016.00 1015.75 1014.86 1014.45 1014.71 1015.01 1015.77 1015.45 1014.81 1013.40 1011.36 1009.47 1009.83 1010.32 1010.72 1010.89 1011.82 1011.34 1011.73 1011.74 1012.22 1012.48 1012.66 1011.92 1012.13 1012.20 1012.12 1012.23 1012.32 1012.36 1012.43 1012.46 1012.43 1012.19 1011.92 1011.72 1011.39 1011.20 1010.76
1020.48 1020.16 1019.81 1019.49 1019.13 1018.77 1018.43 1018.11 1017.81 1017.47 1017.20 1016.91 1016.76 1016.51 1015.88 1014.75 1014.50 1014.62 1014.85 1015.09 1015.15 1015.10 1015.13 1014.71 1012.95 1011.63 1010.30 1010.40 1010.71 1011.19 1011.19 1011.46 1011.65 1011.34 1011.11 1011.66 1012.13 1011.98 1011.66 1011.73 1011.98 1012.08 1012.10 1012.06 1012.12 1012.14 1012.09 1012.08 1011.96 1011.69 1011.45 1011.16 1010.86 1010.36
1020.33 1019.98 1019.64 1019.30 1018.98 1018.64 1018.37 1018.06 1017.82 1017.46 1016.59 1016.69 1016.64 1016.32 1015.21 1014.58 1014.72 1014.83 1014.89 1015.10 1014.96 1014.90 1014.05 1013.05 1012.22 1011.57 1010.28 1010.52 1010.74 1010.85 1011.24 1011.57 1011.96 1011.76 1011.74 1012.13 1012.45 1012.32 1012.24 1012.19 1012.03 1011.95 1011.81 1011.76 1011.80 1011.75 1011.68 1011.60 1011.47 1011.36 1011.10 1010.76 1010.38 1009.96
1020.15 1019.78 1019.44 1019.08 1018.75 1018.43 1018.13 1017.84 1017.65 1017.34 1017.20 1017.47 1017.29 1016.62 1015.85 1015.14 1014.98 1014.84 1014.42 1014.00 1013.90 1013.20 1012.11 1011.63 1011.00 1010.82 1010.22 1009.87 1010.63 1011.23 1011.65 1012.09 1012.09 1011.63 1012.09 1012.43 1012.44 1012.21 1012.25 1012.10 1011.97 1011.77 1011.64 1011.60 1011.42 1011.39 1011.23 1011.01 1010.76 1010.68 1010.54 1010.26 1009.82 1009.40
1019.98 1019.60 1019.16 1018.72 1018.32 1018.02 1017.74 1017.58 1017.51 1017.41 1017.20 1016.89 1016.95 1016.44 1015.67 1015.01 1014.70 1014.16 1013.50 1012.86 1012.37 1011.41 1010.77 1010.30 1010.43 1010.07 1009.86 1010.09 1011.07 1011.49 1011.93 1012.15 1011.57 1012.09 1012.22 1012.35 1012.33 1012.32 1012.12 1011.94 1011.84 1011.61 1011.48 1011.37 1011.30 1011.07 1010.81 1010.54 1010.22 1010.04 1009.86 1009.45 1009.17 1008.87
1019.78 1019.32 1018.84 1018.39 1017.93 1017.56 1017.25 1017.27 1017.28 1017.20 1017.31 1016.99 1016.33 1016.09 1015.23 1014.23 1013.32 1012.58 1011.96 1011.54 1010.74 1010.48 1010.13 1009.95 1010.28 1010.23 1010.48 1011.03 1011.45 1011.85 1011.72 1011.56 1011.96 1012.16 1012.07 1012.31 1012.14 1011.95 1011.92 1011.90 1011.84 1011.55 1011.39 1011.23 1011.00 1010.74 1010.46 1010.14 1009.74 1009.38 1009.15 1008.86 1008.56 1008.21
1019.52 1019.06 1018.55 1018.19 1017.71 1017.11 1016.95 1017.00 1017.04 1017.10 1017.06 1016.64 1015.78 1015.04 1013.94 1012.82 1012.04 1011.42 1010.88 1010.65 1010.38 1010.09 1010.01 1009.96 1010.50 1010.62 1011.22 1011.39 1011.48 1011.66 1011.63 1011.46 1011.37 1011.66 1011.69 1011.50 1011.59 1011.84 1011.84 1011.67 1011.59 1011.47 1011.26 1011.01 1010.59 1010.36 1009.91 1009.45 1009.07 1008.63 1008.39 1008.19 1008.01 1007.73
1019.23 1018.74 1018.68 1018.29 1017.66 1017.22 1017.15 1017.12 1017.09 1017.09 1016.71 1016.30 1015.38 1014.38 1013.14 1012.50 1011.96 1011.25 1010.86 1010.52 1010.13 1010.63 1010.83 1011.11 1011.21 1011.74 1011.93 1011.93 1011.82 1011.44 1011.23 1010.90 1011.08 1011.16 1011.05 1011.31 1011.66 1011.60 1011.56 1011.55 1011.44 1011.17 1010.91 1010.53 1010.12 1009.75 1009.33 1008.90 1008.61 1008.04 1007.72 1007.50 1007.37 1007.17
1018.98 1018.81 1018.73 1018.40 1018.03 1017.69 1017.48 1017.40 1017.26 1017.15 1016.80 1015.95 1014.71 1013.59 1013.31 1012.82 1012.22 1011.50 1010.85 1010.31 1009.80 1010.62 1011.55 1011.86 1011.98 1011.85 1011.82 1011.60 1011.43 1010.65 1010.37 1010.36 1010.41 1010.71 1010.92 1011.00 1011.21 1011.43 1011.52 1011.38 1011.17 1010.89 1010.64 1010.31 1009.93 1009.45 1008.90 1008.32 1007.94 1007.63 1007.53 1007.08 1006.93 1006.56
1019.03 1018.88 1018.79 1018.58 1018.24 1017.82 1017.58 1017.49 1017.33 1016.87 1016.25 1015.31 1014.81 1013.42 1012.96 1012.37 1012.01 1011.57 1010.87 1010.41 1010.59 1011.10 1011.66 1012.04 1011.95 1011.93 1011.69 1011.36 1010.68 1010.20 1010.06 1009.95 1010.27 1010.61 1010.73 1010.92 1011.09 1011.07 1011.02 1011.12 1010.93 1010.71 1010.39 1009.97 1009.52 1008.97 1008.36 1007.78 1007.39 1007.01 1006.76 1006.61 1006.37 1005.89
1019.33 1018.97 1018.60 1018.50 1018.56 1018.42 1017.80 1017.31 1017.17 1016.54 1015.29 1014.49 1013.63 1012.97 1012.47 1011.95 1011.36 1010.97 1010.74 1010.39 1010.35 1010.64 1011.18 1011.63 1011.66 1011.51 1011.12 1010.44 1010.23 1010.34 1010.22 1010.18 1010.46 1010.78 1010.76 1010.69 1010.75 1010.81 1010.76 1010.76 1010.69 1010.49 1010.18 1009.76 1009.12 1008.36 1007.72 1007.14 1006.79 1006.53 1006.38 1006.20 1005.93 1005.37
1018.45 1018.13 1017.76 1017.80 1018.33 1018.18 1017.65 1016.91 1016.57 1016.18 1015.02 1013.61 1012.83 1012.45 1012.17 1011.66 1011.00 1010.63 1010.37 1010.28 1010.46 1010.89 1010.93 1010.87 1010.83 1010.14 1009.96 1009.72 1009.57 1009.46 1009.82 1009.81 1010.07 1010.78 1010.92 1010.86 1010.62 1010.49 1010.40 1010.48 1010.55 1010.32 1009.91 1009.28 1008.62 1007.92 1007.20 1006.57 1006.04 1005.88 1005.89 1005.76 1005.50 1005.05
1018.14 1017.88 1017.68 1017.75 1018.14 1018.09 1017.60 1016.64 1015.98 1015.25 1014.25 1013.38 1012.25 1011.86 1011.27 1010.56 1010.45 1010.23 1010.17 1009.91 1010.31 1010.19 1009.97 1009.56 1009.50 1009.03 1008.69 1008.84 1008.87 1008.98 1009.40 1009.55 1009.69 1010.03 1010.37 1010.54 1010.31 1010.21 1010.08 1010.18 1010.28 1010.00 1009.70 1009.13 1008.56 1007.72 1007.04 1006.37 1005.68 1005.38 1005.32 1005.22 1004.80 1004.43
1018.26 1017.78 1017.74 1017.71 1017.57 1017.36 1016.88 1015.87 1015.30 1014.10 1013.61 1012.48 1011.64 1011.01 1010.72 1010.38 1009.91 1009.50 1009.23 1009.64 1009.53 1009.02 1008.57 1008.68 1008.72 1008.75 1008.94 1008.92 1008.82 1008.64 1008.73 1008.91 1009.04 1009.47 1009.70 1009.83 1010.12 1010.15 1010.27 1010.23 1010.17 1009.81 1009.35 1008.82 1008.26 1007.67 1006.84 1006.10 1005.46 1005.03 1004.80 1004.50 1004.25 1004.08
1018.27 1017.79 1017.68 1017.29 1017.12 1016.53 1015.57 1014.49 1014.27 1013.33 1012.72 1011.46 1010.54 1010.24 1009.78 1009.35 1008.79 1008.47 1008.80 1008.56 1007.97 1007.26 1007.09 1007.50 1007.79 1007.94 1008.39 1008.55 1008.41 1008.52 1008.79 1008.88 1009.18 1009.49 1009.52 1009.48 1009.68 1010.11 1010.19 1009.99 1009.73 1009.57 1009.10 1008.37 1007.84 1007.40 1006.74 1005.93 1005.36 1004.87 1004.54 1004.18 1004.06 1004.35
1017.97 1017.83 1017.00 1016.60 1016.34 1015.57 1014.52 1013.79 1013.17 1012.51 1011.63 1010.99 1010.27 1009.42 1008.74 1008.33 1007.92 1008.23 1008.16 1007.44 1006.68 1006.34 1006.63 1006.97 1007.26 1007.81 1008.19 1008.33 1008.29 1008.41 1008.47 1008.65 1009.10 1009.09 1009.13 1009.51 1009.98 1010.18 1009.94 1009.81 1009.48 1009.07 1008.63 1008.13 1007.70 1007.28 1006.82 1006.28 1005.60 1005.01 1004.49 1004.32 1004.89 1005.21
1017.71 1017.26 1016.79 1015.95 1015.32 1014.84 1013.80 1012.76 1012.20 1011.85 1011.13 1010.35 1009.85 1009.07 1008.33 1007.75 1007.91 1008.00 1007.46 1006.54 1005.93 1005.98 1005.97 1006.37 1006.83 1007.17 1007.60 1007.74 1008.04 1008.02 1007.90 1008.48 1008.60 1009.21 1009.34 1009.42 1009.65 1009.78 1009.73 1009.68 1009.21 1008.80 1008.43 1008.17 1007.84 1007.55 1007.26 1006.74 1006.27 1005.73 1005.43 1005.55 1005.72 1005.95
1017.05 1016.10 1015.65 1014.52 1013.83 1013.64 1013.01 1012.28 1011.81 1011.43 1010.77 1010.09 1009.42 1008.91 1008.32 1007.99 1007.78 1007.27 1006.44 1005.89 1005.54 1005.55 1005.70 1006.00 1006.49 1007.13 1007.28 1007.23 1007.43 1007.57 1007.28 1007.51 1008.09 1008.63 1008.92 1008.88 1009.02 1009.22 1009.48 1009.63 1009.44 1009.00 1008.51 1008.25 1007.99 1007.74 1007.56 1007.28 1006.96 1006.66 1006.54 1006.53 1006.62 1006.79
1016.15 1015.12 1014.27 1013.58 1013.34 1012.90 1012.67 1012.01 1011.51 1011.33 1010.73 1010.10 1009.55 1008.99 1008.50 1008.07 1007.48 1006.88 1006.54 1006.38 1006.20 1005.97 1005.85 1005.96 1005.98 1006.15 1006.30 1006.40 1006.44 1006.33 1006.53 1006.81 1007.22 1007.38 1007.85 1008.27 1008.40 1008.54 1008.85 1009.03 1009.18 1009.12 1008.65 1008.43 1008.28 1008.13 1007.99 1007.79 1007.58 1007.42 1007.35 1007.17 1007.28 1007.36
1015.29 1014.37 1013.81 1013.15 1012.79 1012.30 1011.92 1011.37 1010.80 1010.42 1010.08 1009.67 1009.49 1009.04 1008.64 1008.28 1007.94 1007.30 1006.87 1006.67 1006.69 1006.33 1006.12 1004.97 1004.97 1005.01 1005.33 1005.56 1005.49 1005.86 1006.21 1006.76 1007.26 1007.50 1008.02 1008.40 1008.40 1008.51 1008.64 1008.69 1008.82 1008.83 1008.86 1008.77 1008.62 1008.58 1008.44 1008.35 1008.28 1008.19 1008.13 1008.09 1008.21 1008.25
1014.60 1013.88 1013.42 1012.76 1012.32 1011.75 1010.99 1010.44 1009.62 1009.16 1008.85 1008.95 1008.91 1008.82 1008.75 1008.47 1007.75 1007.17 1006.55 1006.32 1006.25 1006.14 1005.59 1005.21 1004.92 1004.79 1004.86 1004.79 1004.92 1005.33 1005.78 1006.51 1007.29 1007.97 1008.19 1008.66 1009.03 1008.93 1008.72 1008.92 1009.09 1009.33 1009.40 1009.37 1009.19 1009.05 1008.96 1008.92 1008.91 1008.86 1008.96 1008.97 1009.08 1009.12
1013.15 1012.73 1012.55 1011.60 1011.02 1010.28 1009.48 1008.93 1008.42 1008.05 1007.94 1007.82 1007.96 1008.06 1008.00 1007.33 1006.53 1006.09 1006.18 1006.12 1006.14 1005.89 1005.67 1005.44 1005.17 1004.91 1004.54 1004.63 1005.00 1005.26 1005.31 1005.50 1006.11 1006.81 1007.58 1008.05 1008.33 1008.01 1008.33 1008.76 1009.08 1009.43 1009.62 1009.73 1009.91 1009.95 1009.67 1009.51 1009.47 1009.38 1009.52 1009.75 1009.82 1010.01
1011.70 1011.52 1011.39 1010.78 1009.97 1008.99 1008.40 1007.85 1007.53 1007.36 1007.30 1007.19 1007.14 1007.27 1006.89 1006.32 1005.52 1005.16 1005.20 1005.35 1005.30 1005.13 1005.22 1005.00 1005.00 1005.11 1004.56 1004.21 1004.75 1005.06 1005.24 1005.29 1005.30 1005.80 1006.51 1006.93 1007.27 1007.50 1007.73 1008.07 1008.51 1009.03 1009.44 1009.78 1010.04 1010.11 1010.16 1010.20 1010.29 1010.35 1010.38 1010.51 1010.68 1010.74
1010.63 1010.27 1010.00 1009.62 1008.73 1007.96 1007.54 1007.19 1006.90 1006.64 1006.41 1006.43 1006.41 1006.34 1006.26 1006.20 1006.14 1005.40 1004.47 1004.77 1005.12 1005.30 1005.43 1005.84 1005.71 1005.36 1004.75 1003.51 1003.84 1004.29 1004.43 1005.07 1005.36 1005.68 1006.10 1006.61 1006.91 1006.91 1007.09 1007.51 1008.03 1008.56 1009.17 1009.64 1010.00 1010.23 1010.36 1010.48 1010.72 1010.86 1010.96 1011.04 1011.14 1011.32
1009.96 1009.55 1009.32 1009.10 1008.25 1007.31 1006.72 1006.62 1006.17 1005.73 1005.35 1005.34 1005.34 1005.27 1005.49 1005.74 1005.76 1005.20 1004.91 1004.93 1005.19 1005.27 1005.29 1005.09 1005.38 1005.31 1004.89 1003.69 1003.49 1004.30 1004.37 1004.81 1005.14 1005.47 1005.83 1006.13 1006.57 1006.86 1007.02 1007.26 1007.56 1008.05 1008.67 1009.28 1009.74 1010.16 1010.37 1010.54 1010.74 1010.86 1010.98 1011.06 1011.18 1011.32
Wind_Speed
8 9 8 8 9 8 8 9 10 10 10 11 13 14 16 18 19 9 5 4 4 1 7 3 3 3 4 4 3 5 6 6 5 4 4 4 3 5 1 4 3 4 4 2 2 3 3 11 7 8 5 6 7 9
8 8 8 8 8 9 8 8 9 10 10 10 11 12 13 15 17 14 3 5 3 4 7 4 7 11 7 7 5 2 5 3 5 5 1 3 1 2 3 3 5 3 5 4 5 5 1 3 8 2 2 2 6 8
7 7 7 8 8 9 9 9 9 10 10 10 10 11 11 12 12 8 3 4 4 2 6 3 7 9 4 7 6 4 3 3 2 5 5 3 1 4 1 4 2 5 2 3 5 0 5 5 3 7 5 5 5 4
8 7 7 8 9 9 9 9 9 10 10 10 11 11 10 11 10 8 2 2 0 2 1 8 4 5 5 5 6 6 4 3 3 4 3 3 2 3 4 4 4 6 3 3 1 4 2 2 5 3 4 5 8 10
9 9 8 8 9 9 9 9 9 10 10 10 10 11 10 10 13 7 3 4 2 3 3 6 10 7 5 4 5 4 4 3 3 3 3 3 2 3 2 2 2 0 4 4 5 5 5 5 6 7 10 6 6 5
10 9 10 8 7 8 9 9 9 10 10 9 10 11 10 9 12 3 3 1 3 2 2 4 5 4 2 6 6 3 2 2 3 4 3 2 4 4 2 2 3 2 3 5 6 4 6 3 5 5 6 7 9 8
10 10 10 9 8 8 8 8 9 10 10 10 11 11 10 8 2 2 4 4 5 2 3 5 6 6 5 4 2 1 2 2 4 2 1 3 4 5 3 4 5 7 7 5 4 3 2 3 4 5 4 7 8 8
10 10 10 10 9 8 8 9 9 10 10 11 12 12 11 12 6 5 4 8 4 1 2 1 6 4 4 2 0 2 1 3 2 4 1 3 2 2 3 5 7 6 7 5 4 3 4 6 5 6 5 6 9 12
11 10 10 10 10 10 8 9 10 10 10 12 12 14 4 1 1 3 2 6 1 3 2 1 3 4 1 2 2 2 3 2 2 4 5 5 2 5 7 8 7 6 6 6 3 3 5 5 8 8 8 8 9 11
12 12 10 11 11 11 10 10 10 12 13 12 4 1 2 3 4 5 4 2 3 2 0 3 3 4 3 1 2 2 1 4 2 6 2 3 4 2 3 4 7 6 6 3 2 5 4 6 6 6 8 9 9 11
12 12 13 13 13 11 10 9 9 12 6 0 1 2 3 1 3 0 1 2 1 2 4 5 6 3 3 4 4 1 2 1 2 6 5 2 2 2 5 6 5 5 4 4 5 6 6 7 6 7 8 7 9 11
12 13 13 14 14 13 13 10 9 4 2 3 4 4 3 1 1 2 3 2 4 5 3 5 6 6 4 3 4 4 3 3 4 1 3 2 3 3 5 5 3 0 4 6 3 5 6 7 7 7 6 7 8 9
14 14 14 14 15 13 11 8 6 6 7 1 2 2 2 2 0 5 4 4 3 3 4 2 1 4 3 4 3 4 3 4 1 1 4 3 3 3 3 2 2 4 5 5 5 6 8 8 8 7 8 8 8 8
15 15 15 15 12 13 9 5 4 3 1 2 2 4 4 4 5 5 4 3 5 2 5 2 1 3 1 4 3 3 5 2 2 3 4 3 7 7 4 2 3 7 7 8 8 8 9 9 11 11 8 7 8 10
15 16 15 8 15 10 1 2 2 1 2 3 2 4 6 5 3 4 3 1 2 1 3 3 4 3 3 3 1 2 2 3 5 4 4 5 6 5 4 5 7 7 7 8 8 9 11 12 12 13 8 8 7 9
16 14 4 12 15 5 5 2 0 1 2 3 4 3 5 1 3 3 2 3 1 2 3 2 3 5 4 2 2 6 3 4 3 3 3 5 5 5 6 6 7 7 8 9 9 9 10 11 11 12 7 7 7 10
14 1 6 13 15 7 5 2 1 2 3 4 4 3 3 4 5 3 3 3 3 3 3 2 5 1 1 2 2 4 4 4 4 3 3 6 6 3 4 4 5 6 7 7 6 8 10 8 8 6 7 8 7 10
0 3 12 13 11 4 1 1 2 3 6 5 4 4 2 3 3 4 3 1 3 3 3 6 5 2 2 2 3 1 2 2 3 4 3 2 2 3 1 3 6 7 7 8 8 10 9 9 7 6 7 6 7 7
6 9 15 13 4 2 2 3 2 4 6 4 5 4 3 4 4 4 3 2 3 3 6 2 0 4 5 4 1 2 3 2 3 2 2 3 5 3 2 3 6 5 7 9 10 8 8 9 7 7 5 4 5 6
16 13 13 10 6 2 3 3 2 4 5 5 3 5 4 4 5 4 4 2 3 3 3 5 5 4 4 4 4 3 2 4 4 2 1 2 4 2 2 2 4 6 6 8 9 9 7 6 5 4 4 5 4 7
9 2 3 3 2 2 3 3 4 4 4 4 4 2 4 2 2 3 3 2 2 4 4 4 5 6 4 4 3 4 4 4 4 5 4 3 4 3 2 3 4 4 4 5 6 9 8 6 6 5 4 4 5 5
3 7 1 2 3 4 4 5 4 4 3 4 3 3 3 3 3 4 3 3 4 5 5 4 4 3 2 3 4 4 5 5 3 2 1 2 1 3 3 3 4 4 5 5 6 7 8 6 5 4 4 5 4 3
9 2 2 3 3 3 7 2 3 4 3 4 2 2 3 3 4 3 2 4 5 5 7 6 5 6 7 5 3 3 5 5 3 1 3 4 1 2 3 5 4 4 5 6 4 6 6 9 6 4 5 4 3 4
6 2 3 4 5 5 4 4 4 3 3 3 3 4 3 4 1 1 4 4 5 3 5 7 5 4 2 2 3 3 5 3 3 3 0 4 2 1 2 2 4 4 4 4 4 4 5 5 8 6 4 7 8 8
3 4 3 5 3 4 4 4 3 2 3 3 3 4 4 1 2 4 4 4 3 4 5 5 5 5 5 3 2 5 5 4 3 4 2 5 4 0 2 3 4 3 4 4 5 4 5 6 5 7 8 8 9 8
4 4 5 4 3 4 3 3 1 4 3 3 3 3 3 1 2 4 3 3 1 3 5 8 7 4 2 4 4 3 4 5 6 4 3 5 4 4 2 1 4 5 4 3 4 5 6 7 7 8 9 8 10 9
4 5 5 5 3 2 3 4 3 3 3 3 3 3 2 3 3 3 4 4 4 3 2 1 5 9 7 5 5 4 4 9 8 6 6 5 4 4 3 2 2 4 3 5 5 5 5 6 8 8 7 8 5 8
4 4 5 3 2 3 3 3 3 4 3 3 2 2 3 4 3 3 3 2 4 5 5 5 6 5 4 5 5 5 4 5 5 6 5 4 2 3 3 3 4 7 5 4 3 5 6 7 8 8 9 9 7 6
4 3 2 7 5 4 4 5 4 4 4 4 2 2 2 3 4 4 5 2 4 3 4 5 5 3 4 6 5 5 5 7 9 9 8 4 2 4 3 4 4 4 3 5 9 7 8 7 8 8 9 8 8 8
6 6 4 4 4 6 5 5 3 4 3 4 5 2 3 4 6 5 3 2 4 3 2 3 1 4 7 6 5 4 4 8 8 10 9 7 7 5 5 5 6 5 4 5 4 3 5 5 6 7 9 7 7 7
4 4 5 5 5 5 7 7 5 4 3 4 5 4 5 5 4 3 6 5 5 2 1 6 8 6 4 5 4 5 4 1 9 10 8 5 5 6 6 6 6 6 5 5 4 2 4 5 5 6 7 8 8 7
3 5 4 7 10 7 5 5 5 5 5 4 5 4 3 3 3 4 2 4 4 3 4 5 5 6 8 3 6 4 9 6 8 9 11 6 5 5 6 6 8 7 7 6 5 4 7 7 5 5 5 7 7 7
3 3 3 3 4 4 4 3 3 4 4 5 5 6 5 5 5 3 1 2 5 6 2 3 2 5 9 9 11 10 11 8 10 11 12 11 10 8 5 5 6 8 10 7 6 6 7 9 7 6 6 6 6 6
Wind_Direction
342 334 337 335 332 332 328 322 312 314 322 330 337 343 350 356 359 7 277 341 78 38 280 276 332 35 3 63 114 277 24 357 41 89 132 224 186 243 137 239 252 191 141 229 57 124 186 331 21 86 270 307 3 16
331 332 331 327 329 330 333 328 319 316 317 320 327 336 344 351 358 3 327 329 345 149 242 259 252 240 204 189 140 330 181 223 201 97 128 123 335 21 152 264 328 33 164 185 140 192 134 331 114 215 266 9 2 9
327 326 338 349 343 336 337 336 330 321 316 315 318 326 335 342 353 11 287 295 4 11 305 358 243 258 165 201 165 129 298 218 21 172 159 169 194 123 180 252 26 318 147 127 98 129 179 103 46 15 5 2 338 0
348 344 346 339 337 337 334 332 331 325 317 317 319 320 322 329 333 350 297 297 81 278 251 282 326 334 283 150 178 164 191 18 110 75 105 125 153 156 211 207 150 215 62 139 73 312 312 345 53 328 347 345 342 333
339 334 328 324 325 325 329 330 329 323 320 317 313 312 314 323 323 305 210 245 220 155 235 281 311 254 219 173 195 138 104 92 75 49 76 214 222 67 304 65 290 84 179 124 211 209 182 262 316 348 340 327 324 309
338 335 331 327 318 323 324 324 329 322 321 315 309 305 309 324 339 355 24 294 4 32 75 315 286 289 161 136 137 140 155 112 105 132 207 266 234 107 113 199 273 150 111 150 181 194 174 240 292 338 355 335 316 309
328 331 335 333 327 323 314 319 325 315 321 318 309 308 304 308 18 178 208 243 12 335 76 317 310 268 164 106 45 64 44 158 120 155 201 187 276 104 148 194 205 190 157 141 107 113 212 233 244 301 300 292 290 286
339 338 337 338 335 330 327 317 313 317 321 314 305 303 300 292 263 298 258 241 149 90 86 263 272 348 152 150 182 170 117 39 315 193 7 181 347 100 245 260 151 164 139 138 155 179 210 264 302 310 284 298 312 306
338 336 338 336 335 335 327 322 315 316 316 307 301 300 307 146 210 237 159 119 178 130 185 275 208 252 7 176 144 358 125 162 252 180 228 100 207 218 223 185 177 177 175 172 193 249 276 284 287 287 284 285 287 295
336 334 332 327 327 332 335 328 324 324 304 290 290 12 287 225 115 100 25 42 13 293 68 225 267 264 102 120 239 108 168 206 110 246 90 126 237 352 24 131 131 149 170 203 329 332 316 301 288 288 285 269 264 279
329 331 336 331 328 326 327 325 322 324 303 201 299 259 293 65 49 91 239 143 197 260 216 227 202 223 299 134 193 110 148 47 63 267 129 269 282 224 172 143 160 164 198 245 239 254 258 256 273 288 292 279 290 292
336 332 325 320 316 316 313 316 329 322 24 295 280 276 294 350 339 213 220 247 185 235 221 187 212 187 254 108 84 341 111 50 236 249 69 275 257 179 150 148 141 147 315 297 280 291 287 275 260 267 265 272 285 293
334 327 320 314 311 308 299 289 287 284 309 282 236 267 142 256 80 198 215 235 222 228 251 222 311 156 28 55 65 78 73 239 35 45 227 232 183 168 167 191 270 282 287 284 291 288 281 272 279 270 277 277 278 292
326 325 321 316 313 304 287 273 250 311 241 255 191 304 179 223 230 197 214 209 241 322 316 139 152 127 152 65 140 113 238 111 210 242 238 216 207 211 212 218 233 262 271 261 265 265 265 265 271 273 261 269 280 295
326 325 323 335 328 323 326 222 179 187 260 264 260 234 224 236 276 247 231 19 292 40 332 40 30 66 28 95 55 76 250 241 210 216 221 213 199 179 209 241 256 267 265 264 263 259 264 264 264 269 258 265 266 287
328 319 8 348 357 38 84 121 128 324 274 259 247 291 289 328 327 346 25 351 15 109 37 342 113 55 16 246 141 211 207 219 234 216 218 129 163 220 246 269 270 270 268 266 271 273 274 276 267 266 258 268 273 282
321 86 6 1 354 328 323 313 296 252 251 284 266 263 242 249 249 271 235 202 355 67 104 133 21 276 117 108 249 222 200 207 188 144 183 181 195 247 275 292 295 286 293 294 294 290 283 278 285 272 267 275 271 272
330 349 338 340 346 312 251 234 250 254 247 239 246 262 234 240 308 303 298 349 94 121 110 186 175 222 211 218 244 336 335 91 132 163 185 184 132 133 116 309 301 299 296 291 288 288 283 294 293 279 275 267 282 281
270 293 299 304 316 309 288 215 211 260 242 242 249 255 241 257 242 232 230 264 155 151 118 90 212 201 215 219 211 266 230 164 166 165 151 151 152 174 296 319 310 309 304 297 294 290 284 276 268 277 275 272 277 292
294 285 283 255 198 249 257 231 180 256 268 252 272 243 230 222 243 228 211 196 138 198 194 170 199 226 178 212 197 127 218 186 132 129 292 230 222 195 301 311 289 289 294 295 306 302 289 282 271 250 250 259 275 285
304 343 49 123 163 240 277 272 234 230 259 257 272 227 252 288 246 209 226 174 155 200 219 207 203 237 221 186 186 187 189 172 167 167 193 230 241 222 283 301 291 291 291 300 305 311 309 275 277 280 273 268 261 252
272 346 235 218 233 210 242 225 229 268 238 245 272 202 239 244 234 224 181 162 214 215 185 189 215 193 197 214 223 203 177 167 171 197 222 190 224 271 301 275 301 296 290 292 299 304 307 296 293 289 292 276 282 312
305 176 248 217 235 229 258 225 234 237 250 262 246 217 232 227 232 120 217 209 230 212 196 197 182 175 176 206 188 159 196 178 215 337 293 234 234 20 313 304 287 282 296 300 299 303 303 309 311 314 311 305 98 64
214 254 246 217 192 257 264 231 218 253 248 243 259 261 256 216 182 37 261 227 225 199 160 176 155 150 121 152 161 188 227 184 103 270 75 111 79 235 266 304 305 293 280 284 306 315 331 332 340 342 15 85 84 78
236 234 191 258 257 241 250 235 223 247 256 248 250 281 278 35 157 201 240 260 212 200 193 170 166 165 166 189 203 232 228 133 145 159 195 150 149 166 3 311 310 315 325 351 343 357 350 346 353 18 39 67 78 77
238 233 197 256 211 201 256 297 20 318 287 276 251 268 303 275 242 248 249 289 234 164 154 164 155 143 219 191 180 214 230 176 135 145 184 171 159 141 197 310 332 323 346 360 358 14 15 8 16 28 59 74 83 92
253 256 220 223 244 182 248 248 206 231 262 264 295 297 290 261 245 308 337 7 11 9 28 163 178 175 196 202 222 238 173 160 174 171 157 168 162 170 139 133 340 288 342 22 23 22 36 33 34 37 51 48 67 99
250 278 238 276 286 212 253 270 235 221 233 240 308 269 278 349 305 277 268 3 324 319 281 250 204 176 168 194 186 159 153 132 105 93 70 48 71 128 144 112 81 42 45 29 48 37 55 58 53 51 53 58 58 67
239 250 256 265 245 250 226 221 231 219 190 177 178 294 318 258 254 267 284 280 273 283 0 20 354 225 179 183 169 176 142 143 135 144 156 173 187 265 194 143 109 91 70 63 40 59 73 72 73 67 64 66 71 76
239 183 232 252 220 217 228 203 249 259 221 194 182 209 224 248 245 235 250 283 278 278 251 277 348 330 177 165 202 245 193 158 174 175 174 188 205 208 174 160 147 142 128 107 100 80 32 57 45 62 71 67 64 70
268 178 211 227 252 242 254 268 262 263 258 216 205 205 247 276 299 228 218 205 241 242 313 347 339 345 233 161 137 126 83 13 125 130 134 153 168 171 179 163 155 150 149 149 154 137 90 77 72 78 82 87 84 81
236 220 215 248 266 260 265 251 240 237 252 225 232 205 222 241 275 270 289 115 81 28 342 318 305 320 326 253 127 148 134 137 130 135 138 142 151 154 147 155 165 153 151 156 166 145 128 122 114 109 112 113 114 120
268 240 241 283 278 246 230 232 246 260 210 198 216 209 202 182 223 245 299 89 153 173 195 344 293 271 284 265 148 155 152 150 150 138 141 148 152 144 125 122 130 153 165 163 160 154 158 150 156 168 160 152 155 165